ARE4281 SKRH-SKBO

Flight info

Callsign ARE4281
Flight time 1h 30m
Altitude 34000
Route VUP1N VUP W19 ELB/N0447F390 UG444 EJA UW91 ILSEV ILSEV5E
Aircraft A319/M-SDE3FGHIRWY/LB1

Departure

Time 2026-05-06 23:57
Airport Almirante Padilla Airport (SKRH)

Arrival

Time 2026-05-07 01:28
Airport El Dorado International Airport (SKBO)
Time Latitude Longitude Altitude Speed Heading
2026-05-06 23:32 11.52798 -72.91946 47 ft 0 kts 360°
2026-05-06 23:41 11.52797 -72.91946 47 ft 1 kts
2026-05-06 23:41 11.52782 -72.91944 47 ft 2 kts 340°
2026-05-06 23:42 11.52769 -72.91938 47 ft 2 kts 326°
2026-05-06 23:42 11.52765 -72.91935 47 ft 2 kts 320°
2026-05-06 23:42 11.52760 -72.91930 47 ft 2 kts 313°
2026-05-06 23:43 11.52751 -72.91918 47 ft 2 kts 297°
2026-05-06 23:43 11.52746 -72.91904 47 ft 2 kts 281°
2026-05-06 23:43 11.52744 -72.91889 47 ft 2 kts 266°
2026-05-06 23:43 11.52745 -72.91874 47 ft 1 kts 270°
2026-05-06 23:44 11.52745 -72.91870 47 ft 0 kts 270°
2026-05-06 23:49 11.52745 -72.91872 47 ft 0 kts 270°
2026-05-06 23:49 11.52745 -72.91885 47 ft 3 kts 270°
2026-05-06 23:50 11.52729 -72.91901 47 ft 5 kts 194°
2026-05-06 23:50 11.52644 -72.91923 47 ft 7 kts 245°
2026-05-06 23:50 11.52640 -72.91981 47 ft 8 kts 268°
2026-05-06 23:51 11.52638 -72.92047 47 ft 10 kts 269°
2026-05-06 23:51 11.52636 -72.92123 47 ft 11 kts 268°
2026-05-06 23:51 11.52633 -72.92210 47 ft 12 kts 268°
2026-05-06 23:51 11.52631 -72.92303 47 ft 13 kts 268°
2026-05-06 23:52 11.52627 -72.92406 46 ft 15 kts 268°
2026-05-06 23:52 11.52624 -72.92493 45 ft 13 kts 267°
2026-05-06 23:52 11.52621 -72.92593 44 ft 14 kts 268°
2026-05-06 23:52 11.52618 -72.92703 43 ft 16 kts 269°
2026-05-06 23:53 11.52614 -72.92822 42 ft 17 kts 268°
2026-05-06 23:53 11.52611 -72.92948 41 ft 18 kts 268°
2026-05-06 23:53 11.52606 -72.93078 41 ft 18 kts 268°
2026-05-06 23:53 11.52603 -72.93212 40 ft 19 kts 267°
2026-05-06 23:54 11.52599 -72.93353 39 ft 20 kts 268°
2026-05-06 23:54 11.52585 -72.93469 39 ft 13 kts 247°
2026-05-06 23:54 11.52576 -72.93529 39 ft 4 kts 315°
2026-05-06 23:54 11.52589 -72.93520 39 ft 3 kts 55°
2026-05-06 23:55 11.52594 -72.93501 39 ft 0 kts 87°
2026-05-06 23:55 11.52594 -72.93497 39 ft 0 kts 89°
2026-05-06 23:56 11.52594 -72.93494 39 ft 1 kts 89°
2026-05-06 23:56 11.52597 -72.93409 39 ft 38 kts 88°
2026-05-06 23:57 11.52613 -72.92864 41 ft 111 kts 86°
2026-05-06 23:57 11.52647 -72.91874 139 ft 159 kts 86°
2026-05-06 23:57 11.52644 -72.90778 872 ft 154 kts 89°
2026-05-06 23:57 11.52619 -72.89703 1645 ft 153 kts 88°
2026-05-06 23:58 11.52607 -72.88614 2267 ft 161 kts 87°
2026-05-06 23:58 11.52634 -72.87440 2789 ft 173 kts 85°
2026-05-06 23:58 11.52694 -72.86176 3282 ft 189 kts 88°
2026-05-06 23:58 11.52404 -72.84826 3856 ft 206 kts 120°
2026-05-06 23:59 11.51296 -72.83875 4546 ft 222 kts 155°
2026-05-06 23:59 11.49701 -72.83669 5066 ft 244 kts 176°
2026-05-06 23:59 11.47942 -72.83652 5590 ft 262 kts 175°
2026-05-06 23:59 11.46069 -72.83607 6202 ft 275 kts 178°
2026-05-07 00:00 11.44169 -72.83989 7006 ft 285 kts 199°
2026-05-07 00:00 11.42455 -72.85046 7819 ft 291 kts 214°
2026-05-07 00:00 11.40848 -72.86307 8593 ft 295 kts 215°
2026-05-07 00:00 11.39241 -72.87592 9299 ft 299 kts 216°
2026-05-07 00:01 11.37585 -72.88911 9787 ft 301 kts 215°
2026-05-07 00:01 11.35923 -72.90227 10018 ft 302 kts 215°
2026-05-07 00:01 11.34256 -72.91536 10053 ft 305 kts 215°
2026-05-07 00:01 11.32559 -72.92863 10324 ft 317 kts 215°
2026-05-07 00:02 11.30765 -72.94264 10754 ft 331 kts 215°
2026-05-07 00:02 11.28908 -72.95715 11431 ft 336 kts 215°
2026-05-07 00:02 11.27050 -72.97168 12118 ft 340 kts 215°
2026-05-07 00:02 11.25174 -72.98633 12799 ft 343 kts 214°
2026-05-07 00:03 11.23180 -72.99973 13466 ft 344 kts 206°
2026-05-07 00:03 11.20978 -73.00981 14088 ft 346 kts 196°
2026-05-07 00:03 11.18678 -73.01705 14699 ft 350 kts 193°
2026-05-07 00:03 11.16316 -73.02377 15315 ft 355 kts 193°
2026-05-07 00:04 11.13925 -73.03049 15916 ft 360 kts 193°
2026-05-07 00:04 11.11479 -73.03743 16526 ft 365 kts 193°
2026-05-07 00:04 11.09003 -73.04454 17113 ft 370 kts 194°
2026-05-07 00:04 11.06518 -73.05172 17678 ft 375 kts 194°
2026-05-07 00:05 11.03985 -73.05906 18258 ft 379 kts 194°
2026-05-07 00:05 11.01472 -73.06686 18872 ft 381 kts 195°
2026-05-07 00:05 10.98942 -73.07501 19437 ft 384 kts 196°
2026-05-07 00:05 10.96365 -73.08334 19964 ft 387 kts 196°
2026-05-07 00:06 10.93777 -73.09167 20467 ft 391 kts 196°
2026-05-07 00:06 10.91195 -73.09997 20965 ft 394 kts 196°
2026-05-07 00:06 10.88537 -73.10849 21474 ft 397 kts 196°
2026-05-07 00:06 10.85906 -73.11691 21941 ft 400 kts 197°
2026-05-07 00:07 10.83237 -73.12545 22397 ft 403 kts 197°
2026-05-07 00:07 10.80558 -73.13401 22863 ft 406 kts 197°
2026-05-07 00:07 10.77834 -73.14271 23354 ft 409 kts 197°
2026-05-07 00:07 10.75125 -73.15137 23830 ft 412 kts 197°
2026-05-07 00:08 10.72377 -73.16013 24290 ft 415 kts 197°
2026-05-07 00:08 10.69605 -73.16898 24737 ft 418 kts 197°
2026-05-07 00:08 10.66806 -73.17791 25191 ft 421 kts 197°
2026-05-07 00:08 10.63998 -73.18687 25616 ft 424 kts 197°
2026-05-07 00:09 10.61144 -73.19598 26051 ft 427 kts 197°
2026-05-07 00:09 10.58313 -73.20501 26486 ft 429 kts 197°
2026-05-07 00:09 10.55465 -73.21410 26917 ft 431 kts 197°
2026-05-07 00:09 10.52604 -73.22322 27353 ft 433 kts 197°
2026-05-07 00:10 10.49697 -73.23248 27772 ft 435 kts 198°
2026-05-07 00:10 10.46810 -73.24180 28184 ft 437 kts 199°
2026-05-07 00:10 10.44993 -73.24835 28436 ft 438 kts 201°
2026-05-07 00:11 10.43112 -73.25598 28691 ft 439 kts 204°
2026-05-07 00:11 10.41007 -73.26562 28975 ft 441 kts 206°
2026-05-07 00:11 10.39463 -73.27303 29217 ft 442 kts 206°
2026-05-07 00:11 10.36719 -73.28635 29788 ft 439 kts 206°
2026-05-07 00:12 10.33973 -73.29971 30418 ft 435 kts 206°
2026-05-07 00:12 10.31237 -73.31300 31030 ft 431 kts 207°
2026-05-07 00:12 10.28563 -73.32597 31633 ft 427 kts 207°
2026-05-07 00:12 10.25866 -73.33903 32222 ft 424 kts 207°
2026-05-07 00:13 10.23246 -73.35172 32763 ft 421 kts 207°
2026-05-07 00:13 10.20585 -73.36460 33258 ft 421 kts 207°
2026-05-07 00:13 10.17944 -73.37738 33652 ft 423 kts 207°
2026-05-07 00:13 10.15264 -73.39033 33964 ft 426 kts 207°
2026-05-07 00:14 10.09877 -73.41635 33996 ft 427 kts 207°
2026-05-07 00:14 10.04524 -73.44221 33975 ft 427 kts 207°
2026-05-07 00:15 9.99141 -73.46820 33966 ft 426 kts 207°
2026-05-07 00:15 9.93775 -73.49410 33949 ft 427 kts 207°
2026-05-07 00:16 9.88440 -73.51984 33944 ft 427 kts 207°
2026-05-07 00:16 9.83039 -73.54586 33959 ft 426 kts 207°
2026-05-07 00:17 9.77681 -73.57169 33928 ft 427 kts 207°
2026-05-07 00:17 9.72332 -73.59834 33904 ft 426 kts 210°
2026-05-07 00:18 9.67104 -73.62676 33896 ft 427 kts 210°
2026-05-07 00:18 9.61863 -73.65537 33889 ft 427 kts 210°
2026-05-07 00:19 9.56615 -73.68398 33891 ft 427 kts 209°
2026-05-07 00:19 9.51402 -73.71236 33877 ft 428 kts 209°
2026-05-07 00:20 9.46160 -73.74088 33859 ft 428 kts 209°
2026-05-07 00:20 9.40904 -73.76948 33854 ft 427 kts 210°
2026-05-07 00:21 9.35636 -73.79814 33848 ft 428 kts 209°
2026-05-07 00:21 9.30394 -73.82664 33841 ft 428 kts 210°
2026-05-07 00:22 9.25160 -73.85509 33843 ft 427 kts 210°
2026-05-07 00:22 9.19903 -73.88367 33845 ft 427 kts 209°
2026-05-07 00:23 9.14648 -73.91222 33842 ft 428 kts 209°
2026-05-07 00:23 9.09305 -73.93902 33837 ft 429 kts 202°
2026-05-07 00:24 9.03598 -73.95588 33832 ft 430 kts 191°
2026-05-07 00:24 8.97623 -73.96127 33833 ft 430 kts 180°
2026-05-07 00:25 8.91611 -73.95737 33831 ft 431 kts 175°
2026-05-07 00:25 8.85656 -73.95235 33839 ft 431 kts 175°
2026-05-07 00:26 8.79615 -73.94738 33840 ft 432 kts 175°
2026-05-07 00:26 8.73652 -73.94254 33851 ft 431 kts 175°
2026-05-07 00:27 8.67649 -73.93769 33858 ft 431 kts 175°
2026-05-07 00:27 8.61662 -73.93288 33862 ft 430 kts 175°
2026-05-07 00:28 8.55664 -73.92806 33859 ft 430 kts 175°
2026-05-07 00:28 8.49672 -73.92325 33856 ft 431 kts 175°
2026-05-07 00:29 8.43680 -73.91844 33880 ft 430 kts 175°
2026-05-07 00:30 8.31740 -73.90884 33895 ft 430 kts 175°
2026-05-07 00:30 8.25758 -73.90404 33905 ft 430 kts 175°
2026-05-07 00:31 8.19797 -73.89923 33923 ft 429 kts 175°
2026-05-07 00:31 8.13804 -73.89442 33914 ft 430 kts 175°
2026-05-07 00:32 8.07843 -73.88964 33922 ft 429 kts 175°
2026-05-07 00:32 8.01886 -73.88487 33921 ft 429 kts 175°
2026-05-07 00:33 7.95924 -73.88013 33922 ft 429 kts 175°
2026-05-07 00:33 7.89925 -73.87534 33932 ft 428 kts 175°
2026-05-07 00:34 7.83982 -73.87059 33908 ft 428 kts 175°
2026-05-07 00:34 7.78024 -73.86581 33879 ft 428 kts 175°
2026-05-07 00:35 7.72075 -73.86103 33879 ft 428 kts 175°
2026-05-07 00:35 7.66129 -73.85628 33871 ft 428 kts 175°
2026-05-07 00:36 7.60171 -73.85151 33883 ft 426 kts 175°
2026-05-07 00:36 7.54275 -73.84679 33872 ft 425 kts 175°
2026-05-07 00:37 7.50222 -73.84354 33871 ft 425 kts 175°
2026-05-07 00:37 7.46714 -73.84073 33867 ft 424 kts 175°
2026-05-07 00:38 7.40828 -73.83602 33880 ft 422 kts 175°
2026-05-07 00:38 7.34970 -73.83133 33881 ft 422 kts 175°
2026-05-07 00:39 7.29108 -73.82664 33881 ft 422 kts 175°
2026-05-07 00:39 7.23231 -73.82194 33875 ft 422 kts 175°
2026-05-07 00:40 7.17372 -73.81725 33863 ft 422 kts 175°
2026-05-07 00:40 7.11478 -73.81253 33863 ft 422 kts 175°
2026-05-07 00:41 7.05626 -73.80936 33869 ft 422 kts 180°
2026-05-07 00:41 6.99736 -73.81263 33864 ft 422 kts 186°
2026-05-07 00:42 6.93913 -73.82221 33870 ft 422 kts 190°
2026-05-07 00:42 6.88144 -73.83310 33863 ft 421 kts 190°
2026-05-07 00:43 6.82354 -73.84399 33867 ft 422 kts 190°
2026-05-07 00:43 6.76567 -73.85484 33880 ft 422 kts 190°
2026-05-07 00:44 6.70775 -73.86568 33908 ft 422 kts 190°
2026-05-07 00:44 6.65012 -73.87645 33929 ft 422 kts 190°
2026-05-07 00:45 6.59215 -73.88728 33955 ft 422 kts 190°
2026-05-07 00:45 6.53448 -73.89805 33954 ft 422 kts 190°
2026-05-07 00:46 6.47655 -73.90889 33963 ft 422 kts 190°
2026-05-07 00:46 6.41879 -73.91970 33982 ft 422 kts 190°
2026-05-07 00:47 6.36074 -73.93057 34001 ft 422 kts 190°
2026-05-07 00:47 6.33179 -73.93599 33810 ft 423 kts 190°
2026-05-07 00:47 6.30302 -73.94138 33401 ft 420 kts 189°
2026-05-07 00:48 6.27447 -73.94672 32914 ft 416 kts 189°
2026-05-07 00:48 6.24578 -73.95208 32380 ft 414 kts 189°
2026-05-07 00:48 6.21762 -73.95734 31818 ft 413 kts 189°
2026-05-07 00:48 6.18921 -73.96265 31206 ft 414 kts 189°
2026-05-07 00:49 6.16084 -73.96795 30575 ft 415 kts 189°
2026-05-07 00:49 6.13264 -73.97321 29940 ft 416 kts 189°
2026-05-07 00:49 6.10415 -73.97852 29257 ft 418 kts 189°
2026-05-07 00:49 6.07547 -73.98387 28657 ft 416 kts 189°
2026-05-07 00:50 6.04696 -73.98921 28215 ft 412 kts 189°
2026-05-07 00:50 6.01903 -73.99442 27774 ft 408 kts 189°
2026-05-07 00:50 5.99111 -73.99969 27348 ft 403 kts 189°
2026-05-07 00:50 5.96391 -74.00487 26917 ft 399 kts 189°
2026-05-07 00:51 5.93672 -74.01004 26476 ft 395 kts 189°
2026-05-07 00:51 5.90972 -74.01519 26031 ft 393 kts 189°
2026-05-07 00:51 5.88265 -74.02034 25571 ft 390 kts 189°
2026-05-07 00:51 5.85603 -74.02538 25124 ft 388 kts 189°
2026-05-07 00:52 5.82974 -74.03037 24697 ft 385 kts 189°
2026-05-07 00:52 5.80332 -74.03537 24266 ft 382 kts 189°
2026-05-07 00:52 5.77715 -74.04033 23830 ft 380 kts 189°
2026-05-07 00:52 5.75126 -74.04523 23399 ft 378 kts 189°
2026-05-07 00:53 5.72540 -74.05015 22977 ft 376 kts 189°
2026-05-07 00:53 5.69966 -74.05503 22558 ft 374 kts 189°
2026-05-07 00:53 5.67432 -74.05984 22140 ft 372 kts 189°
2026-05-07 00:53 5.64876 -74.06469 21740 ft 371 kts 189°
2026-05-07 00:54 5.62356 -74.06948 21338 ft 369 kts 189°
2026-05-07 00:54 5.59830 -74.07427 20934 ft 367 kts 189°
2026-05-07 00:54 5.57296 -74.07907 20521 ft 366 kts 189°
2026-05-07 00:54 5.54785 -74.08382 20109 ft 365 kts 188°
2026-05-07 00:55 5.52288 -74.08855 19708 ft 364 kts 188°
2026-05-07 00:55 5.49817 -74.09323 19300 ft 363 kts 188°
2026-05-07 00:55 5.47325 -74.09795 18888 ft 363 kts 188°
2026-05-07 00:55 5.44835 -74.10268 18488 ft 365 kts 189°
2026-05-07 00:56 5.42432 -74.11051 18109 ft 369 kts 205°
2026-05-07 00:56 5.40295 -74.12530 17994 ft 372 kts 222°
2026-05-07 00:56 5.38516 -74.14431 18003 ft 374 kts 227°
2026-05-07 00:56 5.36802 -74.16409 17993 ft 374 kts 228°
2026-05-07 00:57 5.35104 -74.18381 17986 ft 374 kts 228°
2026-05-07 00:57 5.33399 -74.20344 17966 ft 374 kts 228°
2026-05-07 00:57 5.31686 -74.22300 17956 ft 374 kts 227°
2026-05-07 00:57 5.29968 -74.24253 17942 ft 375 kts 227°
2026-05-07 00:58 5.28225 -74.26228 17920 ft 376 kts 227°
2026-05-07 00:58 5.26480 -74.28200 17898 ft 375 kts 227°
2026-05-07 00:58 5.24747 -74.30111 17888 ft 369 kts 222°
2026-05-07 00:58 5.22653 -74.31507 17586 ft 357 kts 199°
2026-05-07 00:59 5.17953 -74.32888 16983 ft 344 kts 192°
2026-05-07 00:59 5.15694 -74.33521 16591 ft 337 kts 193°
2026-05-07 00:59 5.13453 -74.34199 16080 ft 333 kts 194°
2026-05-07 01:00 5.11254 -74.34901 15546 ft 330 kts 194°
2026-05-07 01:00 5.09081 -74.35616 15087 ft 326 kts 195°
2026-05-07 01:00 5.06934 -74.36334 14657 ft 320 kts 195°
2026-05-07 01:00 5.04849 -74.37037 14269 ft 315 kts 195°
2026-05-07 01:01 5.02776 -74.37736 13911 ft 314 kts 195°
2026-05-07 01:01 5.00708 -74.38433 13606 ft 312 kts 195°
2026-05-07 01:01 4.98644 -74.39132 13394 ft 304 kts 195°
2026-05-07 01:01 4.96666 -74.39804 13265 ft 294 kts 195°
2026-05-07 01:02 4.94774 -74.40447 13166 ft 284 kts 194°
2026-05-07 01:02 4.92908 -74.41054 13053 ft 273 kts 189°
2026-05-07 01:02 4.91108 -74.41068 12993 ft 257 kts 159°
2026-05-07 01:02 4.89492 -74.40338 13000 ft 252 kts 144°
2026-05-07 01:03 4.88098 -74.39291 13016 ft 247 kts 131°
2026-05-07 01:03 4.86962 -74.38015 12911 ft 246 kts 124°
2026-05-07 01:03 4.85922 -74.36640 12659 ft 245 kts 123°
2026-05-07 01:03 4.84914 -74.35266 12373 ft 244 kts 124°
2026-05-07 01:04 4.83904 -74.33903 12086 ft 243 kts 124°
2026-05-07 01:04 4.82902 -74.32564 11813 ft 237 kts 124°
2026-05-07 01:04 4.81916 -74.31258 11539 ft 231 kts 125°
2026-05-07 01:04 4.80952 -74.29988 11268 ft 229 kts 126°
2026-05-07 01:05 4.79986 -74.28715 10989 ft 227 kts 126°
2026-05-07 01:05 4.79030 -74.27454 10725 ft 225 kts 125°
2026-05-07 01:05 4.78111 -74.26241 10523 ft 211 kts 127°
2026-05-07 01:05 4.77247 -74.25101 10227 ft 198 kts 126°
2026-05-07 01:06 4.76439 -74.24034 9959 ft 188 kts 125°
2026-05-07 01:06 4.75671 -74.23021 9716 ft 178 kts 126°
2026-05-07 01:06 4.74945 -74.22060 9499 ft 167 kts 127°
2026-05-07 01:06 4.74254 -74.21147 9303 ft 161 kts 127°
2026-05-07 01:07 4.73546 -74.20208 9605 ft 174 kts 126°
2026-05-07 01:07 4.72839 -74.19280 10428 ft 168 kts 126°
2026-05-07 01:07 4.72112 -74.18335 10878 ft 179 kts 126°
2026-05-07 01:07 4.71325 -74.17302 11226 ft 197 kts 124°
2026-05-07 01:08 4.70457 -74.16156 11667 ft 211 kts 125°
2026-05-07 01:08 4.69565 -74.14983 12283 ft 216 kts 124°
2026-05-07 01:08 4.68526 -74.13902 12802 ft 219 kts 140°
2026-05-07 01:08 4.67146 -74.13230 13074 ft 226 kts 159°
2026-05-07 01:09 4.65527 -74.13065 13115 ft 241 kts 180°
2026-05-07 01:09 4.63860 -74.13535 13123 ft 255 kts 204°
2026-05-07 01:09 4.62388 -74.14529 13134 ft 260 kts 217°
2026-05-07 01:09 4.61232 -74.15934 13117 ft 262 kts 241°
2026-05-07 01:10 4.60691 -74.17677 13117 ft 263 kts 263°
2026-05-07 01:10 4.60579 -74.19506 13126 ft 263 kts 269°
2026-05-07 01:10 4.60532 -74.21331 13113 ft 270 kts 270°
2026-05-07 01:10 4.60478 -74.23238 13080 ft 275 kts 268°
2026-05-07 01:11 4.60405 -74.25166 13093 ft 276 kts 268°
2026-05-07 01:11 4.60312 -74.27087 13074 ft 277 kts 268°
2026-05-07 01:11 4.60217 -74.28993 13059 ft 277 kts 267°
2026-05-07 01:11 4.60116 -74.30917 13043 ft 277 kts 267°
2026-05-07 01:12 4.60009 -74.32866 13030 ft 277 kts 267°
2026-05-07 01:12 4.59905 -74.34795 13010 ft 278 kts 267°
2026-05-07 01:12 4.59799 -74.36713 12990 ft 277 kts 268°
2026-05-07 01:12 4.59693 -74.38650 12986 ft 277 kts 267°
2026-05-07 01:13 4.59589 -74.40561 12988 ft 278 kts 268°
2026-05-07 01:13 4.59484 -74.42512 12968 ft 277 kts 267°
2026-05-07 01:13 4.59380 -74.44434 12945 ft 276 kts 267°
2026-05-07 01:13 4.59356 -74.46360 12895 ft 276 kts 281°
2026-05-07 01:14 4.60124 -74.48072 12886 ft 270 kts 317°
2026-05-07 01:14 4.61667 -74.49020 12895 ft 260 kts 350°
2026-05-07 01:14 4.63443 -74.49322 12898 ft 259 kts 355°
2026-05-07 01:14 4.65251 -74.49622 12897 ft 259 kts 354°
2026-05-07 01:15 4.67012 -74.49947 12920 ft 259 kts 353°
2026-05-07 01:15 4.68781 -74.50298 12931 ft 259 kts 353°
2026-05-07 01:15 4.70562 -74.50663 12943 ft 259 kts 353°
2026-05-07 01:15 4.72335 -74.51032 12943 ft 259 kts 352°
2026-05-07 01:16 4.74120 -74.51406 12909 ft 259 kts 352°
2026-05-07 01:16 4.75872 -74.51776 12892 ft 259 kts 352°
2026-05-07 01:16 4.77661 -74.52155 12882 ft 259 kts 352°
2026-05-07 01:16 4.79415 -74.52528 12889 ft 259 kts 352°
2026-05-07 01:17 4.81203 -74.52908 12881 ft 260 kts 352°
2026-05-07 01:17 4.82969 -74.53281 12885 ft 260 kts 352°
2026-05-07 01:17 4.84768 -74.53561 12847 ft 256 kts
2026-05-07 01:17 4.86397 -74.53005 12843 ft 245 kts 41°
2026-05-07 01:18 4.87441 -74.51704 12854 ft 240 kts 68°
2026-05-07 01:18 4.88013 -74.50152 12890 ft 239 kts 71°
2026-05-07 01:18 4.88594 -74.48580 12890 ft 238 kts 71°
2026-05-07 01:18 4.89162 -74.47077 12879 ft 225 kts 70°
2026-05-07 01:19 4.89707 -74.45652 12872 ft 211 kts 70°
2026-05-07 01:19 4.90217 -74.44321 12904 ft 203 kts 70°
2026-05-07 01:19 4.90526 -74.42954 12924 ft 203 kts 92°
2026-05-07 01:19 4.90084 -74.41623 12960 ft 208 kts 122°
2026-05-07 01:20 4.89162 -74.40485 13048 ft 205 kts 127°
2026-05-07 01:20 4.88277 -74.39471 13122 ft 185 kts 126°
2026-05-07 01:20 4.87474 -74.38525 13045 ft 172 kts 124°
2026-05-07 01:20 4.86732 -74.37617 12845 ft 165 kts 123°
2026-05-07 01:21 4.86030 -74.36731 12655 ft 160 kts 123°
2026-05-07 01:21 4.85346 -74.35847 12470 ft 161 kts 123°
2026-05-07 01:21 4.84672 -74.34965 12289 ft 161 kts 123°
2026-05-07 01:21 4.83994 -74.34070 12106 ft 161 kts 123°
2026-05-07 01:22 4.83312 -74.33163 11931 ft 160 kts 124°
2026-05-07 01:22 4.82643 -74.32272 11756 ft 161 kts 124°
2026-05-07 01:22 4.81965 -74.31370 11563 ft 160 kts 123°
2026-05-07 01:22 4.81298 -74.30479 11381 ft 160 kts 126°
2026-05-07 01:23 4.80630 -74.29589 11187 ft 159 kts 126°
2026-05-07 01:23 4.79959 -74.28697 10992 ft 159 kts 126°
2026-05-07 01:23 4.79295 -74.27817 10797 ft 159 kts 125°
2026-05-07 01:23 4.78625 -74.26932 10597 ft 159 kts 124°
2026-05-07 01:24 4.77956 -74.26041 10408 ft 160 kts 127°
2026-05-07 01:24 4.77279 -74.25150 10202 ft 160 kts 125°
2026-05-07 01:24 4.76613 -74.24269 10019 ft 156 kts 125°
2026-05-07 01:24 4.75969 -74.23415 9821 ft 152 kts 128°
2026-05-07 01:25 4.75701 -74.23065 9738 ft 152 kts 125°
2026-05-07 01:25 4.75198 -74.22395 9594 ft 151 kts 127°
2026-05-07 01:25 4.74552 -74.21561 9403 ft 151 kts 129°
2026-05-07 01:25 4.73932 -74.20722 9218 ft 150 kts 123°
2026-05-07 01:26 4.73308 -74.19872 9057 ft 150 kts 128°
2026-05-07 01:26 4.72662 -74.19051 8914 ft 150 kts 127°
2026-05-07 01:26 4.72035 -74.18224 8711 ft 150 kts 126°
2026-05-07 01:26 4.71401 -74.17384 8513 ft 149 kts 126°
2026-05-07 01:27 4.70776 -74.16557 8359 ft 147 kts 126°
2026-05-07 01:27 4.70226 -74.15825 8363 ft 107 kts 127°
2026-05-07 01:27 4.69866 -74.15352 8367 ft 75 kts 127°
2026-05-07 01:27 4.69571 -74.14965 8366 ft 64 kts 127°
2026-05-07 01:28 4.69349 -74.14674 8365 ft 31 kts 128°
2026-05-07 01:28 4.69256 -74.14550 8365 ft 21 kts 127°
2026-05-07 01:28 4.69170 -74.14434 8365 ft 20 kts 128°
2026-05-07 01:28 4.69084 -74.14322 8365 ft 20 kts 127°
2026-05-07 01:29 4.69011 -74.14217 8365 ft 13 kts 104°
2026-05-07 01:29 4.69053 -74.14136 8366 ft 14 kts 37°
2026-05-07 01:29 4.69122 -74.14085 8367 ft 9 kts 37°
2026-05-07 01:29 4.69180 -74.14089 8367 ft 9 kts 309°
2026-05-07 01:30 4.69224 -74.14147 8367 ft 11 kts 307°
2026-05-07 01:30 4.69272 -74.14212 8366 ft 12 kts 307°
2026-05-07 01:30 4.69327 -74.14284 8366 ft 13 kts 307°
2026-05-07 01:30 4.69385 -74.14360 8366 ft 13 kts 308°
2026-05-07 01:31 4.69445 -74.14436 8367 ft 13 kts 307°
2026-05-07 01:31 4.69501 -74.14512 8368 ft 13 kts 306°
2026-05-07 01:31 4.69559 -74.14590 8367 ft 14 kts 307°
2026-05-07 01:31 4.69623 -74.14674 8367 ft 15 kts 307°
2026-05-07 01:32 4.69687 -74.14757 8367 ft 15 kts 307°
2026-05-07 01:32 4.69749 -74.14806 8367 ft 9 kts
2026-05-07 01:32 4.69796 -74.14775 8368 ft 10 kts 40°
2026-05-07 01:32 4.69849 -74.14735 8370 ft 8 kts 37°
2026-05-07 01:33 4.69899 -74.14698 8371 ft 9 kts 37°
2026-05-07 01:33 4.69954 -74.14656 8371 ft 10 kts 37°
2026-05-07 01:33 4.70013 -74.14612 8372 ft 10 kts 38°
2026-05-07 01:33 4.70063 -74.14562 8373 ft 10 kts 77°
2026-05-07 01:34 4.70033 -74.14501 8373 ft 10 kts 127°
2026-05-07 01:34 4.69990 -74.14445 8374 ft 10 kts 126°
2026-05-07 01:34 4.69949 -74.14388 8374 ft 8 kts 115°
2026-05-07 01:34 4.69971 -74.14349 8374 ft 6 kts 33°
2026-05-07 01:35 4.69990 -74.14335 8374 ft 0 kts 37°